Location: Newark
(49.8969°N, 3.3422°E)
Time: 05:50:46
(UTC+00:00)

A-11 Canister half - Pass Details

Date: 29 January 2020
Orbit: 1517 x 1683 km, 47.2° (Epoch: 27 February)

Event Time Altitude Azimuth Distance (km) Brightness Sun altitude
Rises 22:50:25 0° 235° (SW) 4,759 - -55.1°
Reaches altitude 10° 22:53:35 10° 232° (SW) 3,754 - -55.3°
Maximum altitude 23:02:46 59° 156° (SSE) 1,737 - -56.0°
Drops below altitude 10° 23:11:47 10° 81° (E) 3,684 - -56.6°
Sets 23:14:51 0° 77° (ENE) 4,664 - -56.7°
